Regional Weather Roundup
Issued by NWS Northern Indiana

Home | Current Version | Previous Version | Graphics & Text | Print | Product List | Glossary On
Versions: 1 2 3 4 5 6 7 8 9 10 11 12 13 14 15 16 17 18 19 20 21 22 23 24 25 26 27 28 29 30 31 32 33 34 35 36 37 38 39 40 41 42 43 44 45 46 47 48 49 50
000
ASUS43 KIWX 231810
RWRIWX

KIWX WEATHER ROUNDUP
NATIONAL WEATHER SERVICE NORTHERN INDIANA
200 PM EDT WED JUL 23 2014

NOTE: "FAIR" INDICATES FEW OR NO CLOUDS BELOW 12,000 FEET WITH NO
SIGNIFICANT WEATHER AND/OR OBSTRUCTIONS TO VISIBILITY.

* THESE STATIONS ARE NOT UNDER NWS QUALITY CONTROL. THEY ALSO MAY NOT
  REPORT WEATHER SUCH AS PRECIPITATION OR FOG.

INZ001>027-231900-
NORTHERN INDIANA

CITY           SKY/WX    TMP DP  RH WIND       PRES   REMARKS
GARY*          MOSUNNY   68  59  73 N14G30    30.18R
VALPARAISO     MOSUNNY   69  58  67 N14G21    30.13F
6HR MIN TEMP:  64; 6HR MAX TEMP:  70;

MICHIGAN CITY* CLOUDY    66  55  68 N15G21    30.15S
LAPORTE*       MOSUNNY   69  58  68 N18G25    30.13F
6HR MIN TEMP:  64; 6HR MAX TEMP:  70;

KNOX*          SUNNY     73  59  62 N17G23    30.10F
6HR MIN TEMP:  44; 6HR MAX TEMP:  86;

SOUTH BEND     PTSUNNY   74  58  57 N12       30.11F
6HR MIN TEMP:  64; 6HR MAX TEMP:  74;

ELKHART*       PTSUNNY   72  57  60 NW9       30.11F
GOSHEN         CLOUDY    72  60  66 NW13G18   30.10S
6HR MIN TEMP:  65; 6HR MAX TEMP:  72;

MONTICELLO*    CLOUDY    74  64  71 N14G21    30.07S
6HR MIN TEMP:  67; 6HR MAX TEMP:  74;

LOGANSPORT*    CLOUDY    72  63  73 N10       30.08F
ROCHESTER*     CLOUDY    73  61  64 N10       30.09F
WARSAW*        CLOUDY    70  61  73 N9        30.09F
ANGOLA*        PTSUNNY   73  59  60 N8        30.07F
FORT WAYNE     DRIZZLE   68  64  87 NW13      30.07S FOG
6HR MIN TEMP:  68; 6HR MAX TEMP:  73; 6HR PCP: TRACE;

HUNTINGTON*    CLOUDY    67  64  91 N9        30.07S
6HR MIN TEMP:  66; 6HR MAX TEMP:  71;

PERU/GRISSOM   CLOUDY    74  69  86 N10       30.07F
6HR MIN TEMP:  69; 6HR MAX TEMP:  74; 6HR PCP: TRACE;

MARION*        CLOUDY    73  67  81 N9        30.06F
6HR MIN TEMP:  32; 6HR MAX TEMP:  89; 6HR PCP:  0.03;


$$
INZ028>050-231900-
CENTRAL INDIANA

CITY           SKY/WX    TMP DP  RH WIND       PRES   REMARKS
LAFAYETTE      MOSUNNY   76  63  64 N15       30.07F
6HR MIN TEMP:  68; 6HR MAX TEMP:  77;

KOKOMO*        CLOUDY    73  68  83 N13       30.06F
6HR MIN TEMP:  70; 6HR MAX TEMP:  73;

MUNCIE*        CLOUDY    74  69  85 NW6       30.05S
6HR MIN TEMP:  71; 6HR MAX TEMP:  74; 6HR PCP: TRACE;

INDIANAPOLIS   CLOUDY    74  68  81 W7        30.05S
6HR MIN TEMP:  68; 6HR MAX TEMP:  74; 6HR PCP:  1.58;


$$
MIZ043>046-050>051-056>058-064>065-071>073-077>080-231900-
SOUTHWEST LOWER MICHIGAN

CITY           SKY/WX    TMP DP  RH WIND       PRES   REMARKS
BATTLE CREEK   CLOUDY    72  56  57 N12       30.10S
6HR MIN TEMP:  64; 6HR MAX TEMP:  75;

BENTON HARBOR  CLOUDY    66  59  78 NW12G20   30.13S
6HR MIN TEMP:  63; 6HR MAX TEMP:  68;

COLDWATER*     PTSUNNY   74  59  58 N10       30.08F
6HR MIN TEMP:  66; 6HR MAX TEMP:  74;

HILLSDALE*     PTSUNNY   72  60  65 N9        30.08S
6HR MIN TEMP:  66; 6HR MAX TEMP:  73;

HOLLAND        MOSUNNY   75  58  55 VRB7      30.12F
6HR MIN TEMP:  63; 6HR MAX TEMP:  75;

GRAND RAPIDS   PTSUNNY   74  56  53 N14       30.10F
6HR MIN TEMP:  64; 6HR MAX TEMP:  75;

KALAMAZOO      CLOUDY    73  57  57 N12       30.10S
6HR MIN TEMP:  64; 6HR MAX TEMP:  74;

STURGIS*       PTSUNNY   72  61  68 NW10      30.09S
THREE RIVERS*  CLOUDY    71  61  70 N7        30.10S
6HR MIN TEMP:  65; 6HR MAX TEMP:  73;


$$
OHZ001>008-015>018-024>025-231900-
NORTHWEST OHIO

CITY           SKY/WX    TMP DP  RH WIND       PRES   REMARKS
WAUSEON*       CLOUDY    70  63  78 N6G13     30.06F
DEFIANCE         N/A     71  61  70 N12       30.07R
FINDLAY        LGT RAIN  70  66  87 N13       30.04R FOG
6HR MIN TEMP:  70; 6HR MAX TEMP:  78; 6HR PCP:  0.01;

TOLEDO EXPRESS CLOUDY    71  60  68 N12       30.05S
6HR MIN TEMP:  69; 6HR MAX TEMP:  72;

TOLEDO METCALF CLOUDY    69  64  84 NE3       30.06S
6HR MIN TEMP:  68; 6HR MAX TEMP:  73; 6HR PCP:  0.03;

LIMA           CLOUDY    73  67  81 W10       30.05S
6HR MIN TEMP:  71; 6HR MAX TEMP:  79;


$$
&&


USA.gov is the U.S. government's official web portal to all federal, state and local government web resources and services.